Notices

What's New in latest Release from April 7th, 2021:

- Updated Glossary, including Speed of Maximum Gust, and Total Hourly Precipitation

- Updated national and regional climate services offices contacts and prices information

- Addition of station inventory lists for 1981-2010, 1971-2000, and 1961-1990 Normals.

If you haven't already, please take our survey and provide feedback about our website: https://eccc.sondage-survey.ca/f/LanguageSelection.aspx?s=442ca660-fcf1-47c0-95a9-59707d6fd709

Hourly Data Report for April 13, 2019

MIRAMICHI RCS
NEW BRUNSWICK
Current Station Operator: ECCC - MSC

47°00'34.000" N
65°27'54.000" W
33.00 m
8100989
71744
ACQ

Download Data

Hourly Data (April 2019)
Hourly Data Report for April 13, 2019
TIME
LST
Temp Definition
°C
Dew Point Definition
°C
Rel Hum Definition
%
Precip. Amount Definition
mm

Wind Dir Definition
10's deg

Wind Spd Definition
km/h
Visibility Definition
km
Stn Press Definition
kPa
Hmdx Definition


Wind Chill Definition


Weather Definition


00:00 3.3 -3.2 62 0.0 7 2   101.48     LegendNANA
01:00 6.2 -2.2 55 0.0 19 16   101.36     LegendNANA
02:00 5.9 -1.4 59 0.0 21 18   101.25     LegendNANA
03:00 4.8 0.4 73 0.0 20 16   101.23     LegendNANA
04:00 3.8 1.9 88 0.4 20 13   101.13     LegendNANA
05:00 3.6 1.9 89 0.0 19 12   101.04     LegendNANA
06:00 3.5 1.8 89 0.2 19 12   101.02     LegendNANA
07:00 3.3 1.7 89 0.0 20 10   101.01     LegendNANA
08:00 3.3 1.9 91 0.0 22 10   100.99     LegendNANA
09:00 3.6 2.5 93 0.0 21 11   100.90     LegendNANA
10:00 5.4 3.2 86 0.0 23 16   100.89     LegendNANA
11:00 8.2 3.9 74 0.0 24 18   100.80     LegendNANA
12:00 10.8 4.7 66 0.0 23 16   100.71     LegendNANA
13:00 13.2 6.0 62 0.0 21 19   100.57     LegendNANA
14:00 14.7 6.5 58 0.0 22 27   100.50     LegendNANA
15:00 15.0 6.3 56 0.0 22 28   100.42     LegendNANA
16:00 16.5 6.3 51 0.0 22 23   100.29     LegendNANA
17:00 15.6 6.2 53 0.0 21 24   100.22     LegendNANA
18:00 14.5 6.6 59 0.0 20 20   100.19     LegendNANA
19:00 12.6 6.7 67 0.0 22 17   100.22     LegendNANA
20:00 11.7 7.5 75 0.0 21 23   100.22     LegendNANA
21:00 10.7 7.6 81 0.0 24 16   100.28     LegendNANA
22:00 8.0 6.9 93 0.0 24 10   100.33     LegendNANA
23:00 8.7 5.2 79 0.0 25 12   100.33     LegendNANA

Notes on Data Quality.

Legend

  • E = Estimated
  • M = Missing
  • NA = Not Available*
  • [empty] = Indicates an unobserved value
Date modified: